KB3KBR-WX Weather Reports


time (UTC)temp
F
wind
direction
speed
knots
gust
knots
rain 1hr
in
rain 24hr
in
rain mn
in
humidity
%
barometer
mb
20260504014257 52 160 1.7 5.2 0.00 0.00 0.00 52 1009.5
20260504013727 52 160 1.7 6.1 0.00 0.00 0.00 53 1009.4
20260504013228 52 155 1.7 6.1 0.00 0.00 0.00 52 1009.4
20260504012701 52 156 1.7 5.2 0.00 0.00 0.00 51 1009.3
20260504012127 52 151 1.7 5.2 0.00 0.00 0.00 51 1009.3
20260504011631 53 156 1.7 5.2 0.00 0.00 0.00 50 1009.1
20260504011127 53 167 1.7 5.2 0.00 0.00 0.00 51 1009.1
20260504010627 53 169 1.7 5.2 0.00 0.00 0.00 50 1009.1
20260504010058 53 165 1.7 6.1 0.00 0.00 0.00 50 1009.2
20260504005527 53 156 1.7 5.2 0.00 0.00 0.00 50 1009.1
20260504005029 53 149 1.7 4.3 0.00 0.00 0.00 50 1009.2
20260504004459 54 157 1.7 6.1 0.00 0.00 0.00 49 1009.3
20260504003959 54 166 1.7 6.1 0.00 0.00 0.00 48 1009.2
20260504002927 54 186 2.6 7.8 0.00 0.00 0.00 48 1009.1
20260504002430 54 178 2.6 8.7 0.00 0.00 0.00 47 1009.1
20260504001900 54 182 3.5 8.7 0.00 0.00 0.00 47 1009.2
20260504001328 54 174 3.5 8.7 0.00 0.00 0.00 46 1009.1
20260504000827 55 174 2.6 10.4 0.00 0.00 0.00 46 1009.2
20260504000300 55 176 2.6 9.6 0.00 0.00 0.00 46 1009.1
20260503235729 55 173 2.6 9.6 0.00 0.00 0.00 46 1009.1
20260503235227 55 167 2.6 8.7 0.00 0.00 0.00 45 1009.1
20260503234727 55 164 2.6 7.0 0.00 0.00 0.00 45 1009.2
20260503234159 55 181 2.6 9.6 0.00 0.00 0.00 44 1009.1
20260503233627 56 182 3.5 10.4 0.00 0.00 0.00 45 1009.1
20260503233058 56 178 3.5 13.0 0.00 0.00 0.00 44 1009.1
20260503232559 56 169 2.6 13.0 0.00 0.00 0.00 43 1009.1
20260503232027 56 171 1.7 7.8 0.00 0.00 0.00 44 1009.2
20260503230957 56 175 4.3 10.4 0.00 0.00 0.00 42 1009.2
20260503230459 56 172 3.5 10.4 0.00 0.00 0.00 43 1009.2
20260503225927 56 179 3.5 10.4 0.00 0.00 0.00 43 1009.1
20260503225400 56 178 3.5 10.4 0.00 0.00 0.00 42 1009.2
20260503224900 56 172 4.3 10.4 0.00 0.00 0.00 42 1009.3
20260503224331 56 163 3.5 11.3 0.00 0.00 0.00 43 1009.2
20260503223227 56 178 3.5 9.6 0.00 0.00 0.00 42 1009.3
20260503222701 56 179 3.5 8.7 0.00 0.00 0.00 42 1009.3
20260503222128 56 187 3.5 11.3 0.00 0.00 0.00 43 1009.3
20260503221627 57 178 3.5 11.3 0.00 0.00 0.00 42 1009.3
20260503221127 57 168 3.5 11.3 0.00 0.00 0.00 43 1009.3
20260503220627 58 173 3.5 11.3 0.00 0.00 0.00 41 1009.2
20260503220128 58 161 2.6 10.4 0.00 0.00 0.00 42 1009.1
20260503215557 58 160 1.7 7.8 0.00 0.00 0.00 43 1009.2
20260503215028 57 175 2.6 7.8 0.00 0.00 0.00 43 1009.2
20260503214527 57 169 2.6 7.8 0.00 0.00 0.00 41 1009.2
20260503213958 57 161 2.6 7.0 0.00 0.00 0.00 42 1009.1
20260503213427 57 156 2.6 9.6 0.00 0.00 0.00 41 1009.2
20260503212927 58 177 3.5 9.6 0.00 0.00 0.00 42 1009.2
20260503212427 58 181 3.5 9.6 0.00 0.00 0.00 43 1009.2
20260503211930 58 167 4.3 11.3 0.00 0.00 0.00 43 1009.2
20260503211427 58 160 3.5 11.3 0.00 0.00 0.00 42 1009.2
20260503210857 59 189 2.6 11.3 0.00 0.00 0.00 41 1009.1
20260503210329 59 197 1.7 11.3 0.00 0.00 0.00 43 1009.2
20260503205757 59 190 1.7 8.7 0.00 0.00 0.00 41 1009.3
20260503205230 58 332 2.6 12.2 0.00 0.00 0.00 41 1009.3
20260503204727 58 23 3.5 12.2 0.00 0.00 0.00 41 1009.3
20260503204159 59 161 3.5 10.4 0.00 0.00 0.00 41 1009.5
20260503203627 58 209 3.5 10.4 0.00 0.00 0.00 42 1009.4
20260503203100 58 169 4.3 13.0 0.00 0.00 0.00 41 1009.5
20260503202527 58 177 3.5 15.6 0.00 0.00 0.00 42 1009.5
20260503202030 58 216 2.6 15.6 0.00 0.00 0.00 40 1009.7
20260503201457 58 172 2.6 7.8 0.00 0.00 0.00 43 1009.7
20260503200958 58 177 3.5 7.8 0.00 0.00 0.00 40 1009.7
20260503200427 58 171 3.5 8.7 0.00 0.00 0.00 41 1009.8
20260503195930 58 174 2.6 8.7 0.00 0.00 0.00 44 1009.7
20260503195357 58 166 2.6 12.2 0.00 0.00 0.00 44 1009.8
20260503194857 58 172 3.5 12.2 0.00 0.00 0.00 42 1010.0
20260503194330 57 176 2.6 11.3 0.00 0.00 0.00 43 1010.0
20260503193830 57 167 2.6 10.4 0.00 0.00 0.00 44 1010.0
20260503193257 57 156 3.5 10.4 0.00 0.00 0.00 42 1010.2
20260503192802 57 109 2.6 10.4 0.00 0.00 0.00 43 1010.2
20260503192227 56 93 2.6 10.4 0.00 0.00 0.00 42 1010.3
20260503191157 56 167 2.6 7.0 0.00 0.00 0.00 42 1010.5
20260503190127 57 154 3.5 9.6 0.00 0.00 0.00 43 1010.6
20260503185557 57 200 2.6 7.8 0.00 0.00 0.00 42 1010.7
20260503185057 57 195 2.6 9.6 0.00 0.00 0.00 44 1010.8
20260503184557 57 92 1.7 9.6 0.00 0.00 0.00 45 1010.8
20260503183527 56 348 2.6 6.1 0.00 0.00 0.00 43 1011.0
20260503183030 56 333 2.6 7.8 0.00 0.00 0.00 44 1010.9
20260503182459 56 6 2.6 8.7 0.00 0.00 0.00 43 1011.0
20260503181930 56 12 3.5 8.7 0.00 0.00 0.00 42 1011.0
20260503181358 57 335 2.6 8.7 0.00 0.00 0.00 42 1011.0
20260503180857 56 182 2.6 7.0 0.00 0.00 0.00 47 1011.1
20260503180357 55 178 2.6 7.0 0.00 0.00 0.00 46 1011.2
20260503175857 55 187 3.5 7.8 0.00 0.00 0.00 44 1011.2
20260503175327 55 172 4.3 9.6 0.00 0.00 0.00 43 1011.3
20260503174830 55 169 4.3 13.9 0.00 0.00 0.00 44 1011.3
20260503174257 56 178 3.5 13.9 0.00 0.00 0.00 44 1011.4
20260503173800 55 28 2.6 8.7 0.00 0.00 0.00 47 1011.4
20260503173230 55 163 2.6 7.8 0.00 0.00 0.00 43 1011.5
20260503172657 55 181 2.6 9.6 0.00 0.00 0.00 45 1011.5
20260503172157 55 192 2.6 9.6 0.00 0.00 0.00 44 1011.6
20260503171627 55 192 3.5 11.3 0.00 0.00 0.00 44 1011.6
20260503171057 54 191 4.3 11.3 0.00 0.00 0.00 44 1011.6
20260503170527 54 212 2.6 9.6 0.00 0.00 0.00 44 1011.8
20260503160157 51 53 2.6 7.8 0.00 0.01 0.00 45 1012.1
20260503150301 49 66 1.7 5.2 0.00 0.02 0.00 48 1012.5
20260503131227 41 215 0.9 5.2 0.00 0.04 0.00 73 1012.9
20260503130127 40 175 0.0 2.6 0.00 0.04 0.00 77 1012.8
20260503110357 29 326 0.0 0.9 0.00 0.04 0.00 93 1012.4
20260503090156 28 0 0.0 0.0 0.00 0.04 0.00 91 1012.1
20260503080801 28 0 0.0 0.0 0.00 0.04 0.00 91 1012.0
20260503080226 28 0 0.0 0.0 0.00 0.04 0.00 90 1012.0
20260503072526 29 0 0.0 0.0 0.00 0.04 0.00 90 1012.0
20260503071956 29 0 0.0 0.0 0.00 0.04 0.00 90 1012.0
20260503071426 29 0 0.0 0.0 0.00 0.04 0.00 90 1011.8
20260503070926 29 0 0.0 0.0 0.00 0.04 0.00 90 1011.8
20260503070356 29 0 0.0 0.0 0.00 0.04 0.00 90 1011.8
20260503055026 30 0 0.0 0.0 0.00 0.04 0.00 87 1012.3
20260503054456 31 0 0.0 0.0 0.00 0.04 0.00 87 1012.2
20260503053926 31 0 0.0 0.0 0.00 0.04 0.00 87 1012.2
20260503053356 31 326 0.0 0.9 0.00 0.04 0.00 87 1012.2
20260503052826 31 326 0.0 0.9 0.00 0.04 0.00 87 1012.2
20260503052327 31 0 0.0 0.0 0.00 0.04 0.00 87 1012.4
20260503051756 31 0 0.0 0.0 0.00 0.04 0.00 87 1012.4
20260503051256 31 0 0.0 0.0 0.00 0.04 0.00 87 1012.4
20260503050728 32 0 0.0 0.0 0.00 0.04 0.00 86 1012.4
20260503050227 32 0 0.0 0.0 0.00 0.04 0.00 86 1012.5
20260503045726 32 0 0.0 0.0 0.00 0.04 0.00 86 1012.5
20260503045156 32 0 0.0 0.0 0.00 0.04 0.00 85 1012.6
20260503044627 32 0 0.0 0.0 0.00 0.04 0.00 84 1012.5
20260503044056 32 0 0.0 0.0 0.00 0.04 0.00 84 1012.5
20260503043556 33 0 0.0 0.0 0.00 0.04 0.00 83 1012.6
20260503043026 33 0 0.0 0.0 0.00 0.04 0.00 82 1012.6
20260503042456 33 0 0.0 0.0 0.00 0.04 0.00 81 1012.5
20260503041956 34 0 0.0 0.0 0.00 0.04 0.00 81 1012.5
20260503041426 34 0 0.0 0.0 0.00 0.04 0.00 80 1012.5
20260503040926 34 0 0.0 0.0 0.00 0.04 0.00 79 1012.5
20260503040426 35 0 0.0 0.0 0.00 0.04 0.00 78 1012.5
20260503035926 36 0 0.0 0.0 0.00 0.04 0.04 78 1012.5
20260503035356 36 0 0.0 0.0 0.00 0.04 0.04 78 1012.5
20260503034826 36 0 0.0 0.0 0.00 0.04 0.04 77 1012.5
20260503034256 36 0 0.0 0.0 0.00 0.04 0.04 76 1012.6
20260503033726 36 0 0.0 0.0 0.00 0.04 0.04 76 1012.6
20260503033156 37 0 0.0 0.0 0.00 0.04 0.04 76 1012.6
20260503032656 37 0 0.0 0.0 0.00 0.04 0.04 75 1012.6
20260503032156 37 0 0.0 0.0 0.00 0.04 0.04 74 1012.7
20260503031656 37 0 0.0 0.0 0.00 0.04 0.04 74 1012.8
20260503031126 37 340 0.0 0.9 0.00 0.04 0.04 74 1012.7
20260503030626 37 340 0.0 0.9 0.00 0.04 0.04 74 1012.7
20260503030056 37 15 0.0 2.6 0.00 0.04 0.04 74 1012.8
20260503025556 37 19 0.0 3.5 0.00 0.04 0.04 73 1012.8
20260503025026 37 9 0.0 3.5 0.00 0.04 0.04 73 1012.8
20260503024456 37 0 0.0 0.0 0.00 0.04 0.04 73 1012.8
20260503023926 37 10 0.0 0.9 0.00 0.04 0.04 72 1012.9
20260503023356 37 349 0.0 0.9 0.00 0.04 0.04 72 1013.0
20260503022826 37 343 0.0 1.7 0.00 0.04 0.04 72 1013.0
20260503022256 37 317 0.0 1.7 0.00 0.04 0.04 72 1013.0
20260503021726 37 347 0.0 4.3 0.00 0.04 0.04 72 1012.9
20260503021226 37 9 0.0 4.3 0.00 0.04 0.04 71 1012.9
20260503020726 38 3 0.0 1.7 0.00 0.04 0.04 71 1012.8
20260503020226 37 351 0.0 1.7 0.00 0.04 0.04 71 1012.8
20260503015656 38 352 0.0 1.7 0.00 0.04 0.04 71 1012.8
20260503015156 38 3 0.0 1.7 0.00 0.04 0.04 70 1012.8
20260503014626 38 8 0.0 0.9 0.00 0.04 0.04 70 1012.8